DECAYED

STARLINK-1391, 45750 (Decayed)

Orbit data source: Space-Track

STARLINK-1391, 45750 was a payload satellite owned by SpaceX/Seattle (US) in LEO that was launched on Sat, 13 Jun 2020 UTC via an FALCON 9 launch vehicle from the Air Force Eastern Test Range (AFETR). Payload-class satellites include a variety of spacecraft equipped with specific instruments for various scientific and technological missions. These include communications satellites like Starlink; space stations such as the ISS; scientific satellites like the Hubble; Earth observation satellites from companies like Planet Labs, Umbra, and HawkEye 360; GPS; miniature CubeSats for education and research; and military/defense satellites.

Not visible in the next 10 days
Identifier
45750, 2020-038W
Orbit
Decayed
Country
Flag of USUS
Related business
Manufacturer
SpaceX/Seattle
Mission
Decayed Commercial Communications
Bus & Motor
STARLINK, Unknown motor
Mass
260 kg wet, ~248 kg dry
Launch date (UTC)
2020-06-13 (5 years ago)
Launch vehicle
FALCON 9
Launch site
Air Force Eastern Test Range (AFETR)
Object type
Payload
Rocket body
Debris
Shape & HBR
Box + 1 Pan, 10.1 m
Radar Cross Section
13.562 m², Large (>1 m²)

Expand to show TLE details & history
Last TLE update: 8 months ago

TLE from 8 months ago
0 STARLINK-1391
1 45750U 20038W   25055.21746152  .15506515  12583-4  10000-3 0  9994
2 45750  53.0362  68.3608 0010985 219.3255 225.4729 16.53084791261209
Epoch: 2025-02-24T05:13Z
TLE epoch observation values (Epoch: 2025-02-24T05:13:08.675Z)
Latitude
52.87201°
Longitude
-83.03029°
Altitude
142.643 km
Speed
7.824 km/s
True Right ascension
09h 58m 22s
True Declination
52° 41' 27"
Sunlit
Object was in full shadow at epoch
Visualization orbit readout
Latitude
Unknown
Longitude
Unknown
Altitude
Unknown
Speed
Unknown
Apparent Right ascension
Unknown
Apparent Declination
Unknown
Sunlit
N/A
Visualization observer readout
Local Sidereal Time
09:21:05
Azimuth
Unknown
Elevation
Unknown
Doppler factor
Unknown
Orbital elements
Apogee altitude
138.666 km
Perigee altitude
124.365 km
Semi-major axis
6,509.653 km
Eccentricity
0.0011
Inclination
53.0362°
RAAN
68.3608°
Arg. of periapsis
219.3255°
True anomaly
225.38324°
Mean anomaly
225.4729°
Eccentric anomaly
225.42806°
Mean motion
4.13244 °/min
Orbital period
87.12 mins
BSTAR
0.0001
Loading maneuver chart data...
Computing Atmospheric mass density...

Documentation

Showing up to 5 results
|